contact:dominique.lefevre@mio.osupytheas.fr, maurice.libes@osupytheas.fr, didier.mallarino@osupytheas.fr
Project:EMSO http://www.emso-fr.org/EMSO-France
Depth: 2436.0 m
Title:EMSO Ligure Ouest : Data MII capteur CSTAR
DateTime,Latitude,Longitude,Instrument_Serial,Reference_Counts,Signal_Counts,Corrected_Signal_raw_counts,Calculated_Beam_c_inverse_meters,Internal_thermistor_counts
DateTime,Latitude,Longitude,Instrument_Serial,Reference_Counts,Signal_Counts,Corrected_Signal_raw_counts,Calculated_Beam_c_inverse_meters,Internal_thermistor_counts
2023-01-07T00:00:09,42.805,6.029,CST-1368DR,4430,4906,11772,01.130,551
2023-01-07T00:03:11,42.805,6.029,CST-1368DR,4430,4906,11772,01.130,551
2023-01-07T00:06:13,42.805,6.029,CST-1368DR,4430,4906,11771,01.131,551
2023-01-07T00:09:14,42.805,6.029,CST-1368DR,4430,4905,11769,01.131,551
2023-01-07T00:12:16,42.805,6.029,CST-1368DR,4430,4905,11769,01.131,551
2023-01-07T00:15:17,42.805,6.029,CST-1368DR,4430,4904,11768,01.132,551
2023-01-07T00:18:19,42.805,6.029,CST-1368DR,4430,4905,11770,01.131,551
2023-01-07T00:21:20,42.805,6.029,CST-1368DR,4430,4904,11767,01.132,551
2023-01-07T00:24:22,42.805,6.029,CST-1368DR,4430,4904,11768,01.132,551
2023-01-07T00:27:24,42.805,6.029,CST-1368DR,4430,4905,11769,01.131,551
2023-01-07T00:30:25,42.805,6.029,CST-1368DR,4430,4905,11770,01.131,551
2023-01-07T00:33:27,42.805,6.029,CST-1368DR,4430,4906,11772,01.130,551
2023-01-07T00:36:28,42.805,6.029,CST-1368DR,4430,4905,11770,01.131,551
2023-01-07T00:39:30,42.805,6.029,CST-1368DR,4430,4905,11770,01.131,551
2023-01-07T00:42:32,42.805,6.029,CST-1368DR,4430,4906,11772,01.130,551
2023-01-07T00:45:33,42.805,6.029,CST-1368DR,4430,4906,11772,01.130,551
2023-01-07T00:48:35,42.805,6.029,CST-1368DR,4430,4906,11773,01.130,551
2023-01-07T00:51:36,42.805,6.029,CST-1368DR,4430,4905,11769,01.131,551
2023-01-07T00:54:38,42.805,6.029,CST-1368DR,4429,4902,11766,01.132,551
2023-01-07T00:57:40,42.805,6.029,CST-1368DR,4429,4904,11770,01.131,551
2023-01-07T01:00:41,42.805,6.029,CST-1368DR,4430,4904,11766,01.132,551
2023-01-07T01:03:43,42.805,6.029,CST-1368DR,4430,4904,11767,01.132,551
2023-01-07T01:06:44,42.805,6.029,CST-1368DR,4429,4905,11772,01.130,551
2023-01-07T01:09:46,42.805,6.029,CST-1368DR,4430,4904,11767,01.132,551
2023-01-07T01:12:47,42.805,6.029,CST-1368DR,4430,4902,11763,01.133,551
2023-01-07T01:15:49,42.805,6.029,CST-1368DR,4430,4906,11771,01.131,551
2023-01-07T01:18:51,42.805,6.029,CST-1368DR,4430,4904,11766,01.132,551
2023-01-07T01:21:52,42.805,6.029,CST-1368DR,4430,4904,11767,01.132,551
2023-01-07T01:24:54,42.805,6.029,CST-1368DR,4429,4897,11752,01.137,551
2023-01-07T01:27:55,42.805,6.029,CST-1368DR,4430,4904,11768,01.132,551
2023-01-07T01:30:57,42.805,6.029,CST-1368DR,4430,4904,11767,01.132,551
2023-01-07T01:33:59,42.805,6.029,CST-1368DR,4429,4904,11770,01.131,551
2023-01-07T01:37:00,42.805,6.029,CST-1368DR,4429,4903,11767,01.132,551
2023-01-07T01:40:02,42.805,6.029,CST-1368DR,4430,4901,11760,01.134,551
2023-01-07T01:43:03,42.805,6.029,CST-1368DR,4430,4904,11767,01.132,551
2023-01-07T01:46:05,42.805,6.029,CST-1368DR,4430,4903,11765,01.133,551
2023-01-07T01:49:07,42.805,6.029,CST-1368DR,4429,4902,11766,01.132,551
2023-01-07T01:52:08,42.805,6.029,CST-1368DR,4429,4903,11767,01.132,551
2023-01-07T01:55:10,42.805,6.029,CST-1368DR,4429,4901,11763,01.133,551
2023-01-07T01:58:11,42.805,6.029,CST-1368DR,4429,4904,11769,01.131,551
2023-01-07T02:01:13,42.805,6.029,CST-1368DR,4429,4902,11764,01.133,551
2023-01-07T02:04:14,42.805,6.029,CST-1368DR,4429,4904,11769,01.131,551
2023-01-07T02:07:16,42.805,6.029,CST-1368DR,4429,4902,11764,01.133,551
2023-01-07T02:10:18,42.805,6.029,CST-1368DR,4429,4905,11772,01.130,551
2023-01-07T02:13:19,42.805,6.029,CST-1368DR,4429,4905,11772,01.130,551
2023-01-07T02:16:21,42.805,6.029,CST-1368DR,4429,4904,11770,01.131,551
2023-01-07T02:19:22,42.805,6.029,CST-1368DR,4429,4906,11773,01.130,551
2023-01-07T02:22:24,42.805,6.029,CST-1368DR,4429,4904,11770,01.131,551
2023-01-07T02:25:26,42.805,6.029,CST-1368DR,4429,4898,11755,01.136,551
2023-01-07T02:28:27,42.805,6.029,CST-1368DR,4429,4902,11766,01.132,551
2023-01-07T02:31:29,42.805,6.029,CST-1368DR,4429,4902,11766,01.132,551
2023-01-07T02:34:30,42.805,6.029,CST-1368DR,4429,4903,11767,01.132,551
2023-01-07T02:37:32,42.805,6.029,CST-1368DR,4429,4902,11764,01.133,551
2023-01-07T02:40:33,42.805,6.029,CST-1368DR,4429,4901,11763,01.133,551
2023-01-07T02:43:35,42.805,6.029,CST-1368DR,4429,4902,11765,01.133,551
2023-01-07T02:46:37,42.805,6.029,CST-1368DR,4429,4902,11766,01.132,551
2023-01-07T02:49:38,42.805,6.029,CST-1368DR,4429,4901,11763,01.133,551
2023-01-07T02:52:40,42.805,6.029,CST-1368DR,4429,4901,11761,01.134,551
2023-01-07T02:55:41,42.805,6.029,CST-1368DR,4429,4904,11770,01.131,551
2023-01-07T02:58:43,42.805,6.029,CST-1368DR,4429,4902,11764,01.133,551
2023-01-07T03:01:45,42.805,6.029,CST-1368DR,4429,4901,11762,01.134,551
2023-01-07T03:04:46,42.805,6.029,CST-1368DR,4429,4902,11764,01.133,551
2023-01-07T03:07:48,42.805,6.029,CST-1368DR,4429,4902,11766,01.132,551
2023-01-07T03:10:49,42.805,6.029,CST-1368DR,4429,4901,11763,01.133,551
2023-01-07T03:13:51,42.805,6.029,CST-1368DR,4429,4900,11760,01.134,551
2023-01-07T03:16:53,42.805,6.029,CST-1368DR,4429,4902,11765,01.133,551
2023-01-07T03:19:54,42.805,6.029,CST-1368DR,4429,4901,11763,01.133,551
2023-01-07T03:22:56,42.805,6.029,CST-1368DR,4429,4902,11764,01.133,551
2023-01-07T03:25:57,42.805,6.029,CST-1368DR,4429,4900,11761,01.134,551
2023-01-07T03:28:59,42.805,6.029,CST-1368DR,4429,4902,11764,01.133,551
2023-01-07T03:32:00,42.805,6.029,CST-1368DR,4429,4901,11763,01.133,551
2023-01-07T03:35:02,42.805,6.029,CST-1368DR,4429,4901,11761,01.134,551
2023-01-07T03:38:04,42.805,6.029,CST-1368DR,4429,4902,11764,01.133,551
2023-01-07T03:41:05,42.805,6.029,CST-1368DR,4429,4902,11765,01.133,551
2023-01-07T03:44:07,42.805,6.029,CST-1368DR,4429,4884,11722,01.147,551
2023-01-07T03:47:08,42.805,6.029,CST-1368DR,4429,4900,11759,01.135,551
2023-01-07T03:50:10,42.805,6.029,CST-1368DR,4429,4902,11764,01.133,551
2023-01-07T03:53:12,42.805,6.029,CST-1368DR,4429,4900,11760,01.134,551
2023-01-07T03:56:13,42.805,6.029,CST-1368DR,4429,4897,11754,01.136,551
2023-01-07T03:59:15,42.805,6.029,CST-1368DR,4429,4901,11761,01.134,550
2023-01-07T04:02:16,42.805,6.029,CST-1368DR,4429,4900,11761,01.134,551
2023-01-07T04:05:18,42.805,6.029,CST-1368DR,4429,4899,11758,01.135,551
2023-01-07T04:08:19,42.805,6.029,CST-1368DR,4429,4898,11756,01.136,551
2023-01-07T04:11:21,42.805,6.029,CST-1368DR,4429,4899,11758,01.135,551
2023-01-07T04:14:23,42.805,6.029,CST-1368DR,4429,4899,11758,01.135,551
2023-01-07T04:17:24,42.805,6.029,CST-1368DR,4429,4899,11758,01.135,551
2023-01-07T04:20:26,42.805,6.029,CST-1368DR,4429,4894,11746,01.139,551
2023-01-07T04:23:27,42.805,6.029,CST-1368DR,4429,4900,11759,01.135,551
2023-01-07T04:26:29,42.805,6.029,CST-1368DR,4429,4905,11772,01.130,551
2023-01-07T04:29:31,42.805,6.029,CST-1368DR,4429,4902,11764,01.133,551
2023-01-07T04:32:32,42.805,6.029,CST-1368DR,4429,4904,11769,01.131,551
2023-01-07T04:35:34,42.805,6.029,CST-1368DR,4429,4902,11764,01.133,551
2023-01-07T04:38:35,42.805,6.029,CST-1368DR,4429,4901,11761,01.134,551
2023-01-07T04:41:37,42.805,6.029,CST-1368DR,4429,4901,11763,01.133,551
2023-01-07T04:44:39,42.805,6.029,CST-1368DR,4429,4900,11760,01.134,551
2023-01-07T04:47:40,42.805,6.029,CST-1368DR,4429,4899,11757,01.135,551
2023-01-07T04:50:42,42.805,6.029,CST-1368DR,4429,4899,11757,01.135,551
2023-01-07T04:53:43,42.805,6.029,CST-1368DR,4429,4899,11758,01.135,551
2023-01-07T04:56:45,42.805,6.029,CST-1368DR,4429,4899,11758,01.135,551
2023-01-07T04:59:46,42.805,6.029,CST-1368DR,4429,4901,11761,01.134,551
2023-01-07T05:02:48,42.805,6.029,CST-1368DR,4429,4900,11761,01.134,551
2023-01-07T05:05:50,42.805,6.029,CST-1368DR,4429,4896,11750,01.138,551
2023-01-07T05:08:51,42.805,6.029,CST-1368DR,4429,4900,11760,01.134,551
2023-01-07T05:11:53,42.805,6.029,CST-1368DR,4429,4902,11764,01.133,551
2023-01-07T05:14:54,42.805,6.029,CST-1368DR,4429,4901,11761,01.134,551
2023-01-07T05:17:56,42.805,6.029,CST-1368DR,4429,4900,11760,01.134,551
2023-01-07T05:20:58,42.805,6.029,CST-1368DR,4429,4899,11758,01.135,551
2023-01-07T05:23:59,42.805,6.029,CST-1368DR,4429,4900,11760,01.134,551
2023-01-07T05:27:01,42.805,6.029,CST-1368DR,4429,4901,11763,01.133,551
2023-01-07T05:30:02,42.805,6.029,CST-1368DR,4429,4899,11757,01.135,551
2023-01-07T05:33:04,42.805,6.029,CST-1368DR,4429,4898,11756,01.136,551
2023-01-07T05:36:05,42.805,6.029,CST-1368DR,4429,4898,11756,01.136,551
2023-01-07T05:39:07,42.805,6.029,CST-1368DR,4429,4899,11757,01.135,551
2023-01-07T05:42:09,42.805,6.029,CST-1368DR,4429,4899,11758,01.135,551
2023-01-07T05:45:10,42.805,6.029,CST-1368DR,4429,4899,11757,01.135,551
2023-01-07T05:48:12,42.805,6.029,CST-1368DR,4429,4898,11755,01.136,551
2023-01-07T05:51:13,42.805,6.029,CST-1368DR,4429,4898,11754,01.136,551
2023-01-07T05:54:15,42.805,6.029,CST-1368DR,4429,4898,11756,01.136,551
2023-01-07T05:57:17,42.805,6.029,CST-1368DR,4429,4899,11757,01.135,551
2023-01-07T06:00:18,42.805,6.029,CST-1368DR,4429,4898,11756,01.136,551
2023-01-07T06:03:20,42.805,6.029,CST-1368DR,4429,4898,11756,01.136,551
2023-01-07T06:06:21,42.805,6.029,CST-1368DR,4429,4899,11757,01.135,551
2023-01-07T06:09:23,42.805,6.029,CST-1368DR,4429,4901,11763,01.133,551
2023-01-07T06:12:25,42.805,6.029,CST-1368DR,4429,4900,11760,01.134,551
2023-01-07T06:15:26,42.805,6.029,CST-1368DR,4429,4900,11759,01.135,551
2023-01-07T06:18:28,42.805,6.029,CST-1368DR,4429,4899,11758,01.135,551
2023-01-07T06:21:29,42.805,6.029,CST-1368DR,4429,4900,11761,01.134,551
2023-01-07T06:24:31,42.805,6.029,CST-1368DR,4429,4899,11758,01.135,551
2023-01-07T06:27:32,42.805,6.029,CST-1368DR,4429,4900,11761,01.134,551
2023-01-07T06:30:34,42.805,6.029,CST-1368DR,4429,4899,11758,01.135,551
2023-01-07T06:33:36,42.805,6.029,CST-1368DR,4429,4904,11769,01.131,551
2023-01-07T06:36:37,42.805,6.029,CST-1368DR,4429,4901,11763,01.133,551
2023-01-07T06:39:39,42.805,6.029,CST-1368DR,4429,4900,11761,01.134,551
2023-01-07T06:42:40,42.805,6.029,CST-1368DR,4429,4900,11761,01.134,551
2023-01-07T06:45:42,42.805,6.029,CST-1368DR,4429,4899,11758,01.135,551
2023-01-07T06:48:44,42.805,6.029,CST-1368DR,4429,4900,11761,01.134,551
2023-01-07T06:51:45,42.805,6.029,CST-1368DR,4429,4901,11763,01.133,551
2023-01-07T06:54:47,42.805,6.029,CST-1368DR,4429,4900,11759,01.135,551
2023-01-07T06:57:48,42.805,6.029,CST-1368DR,4429,4900,11760,01.134,551
2023-01-07T07:00:50,42.805,6.029,CST-1368DR,4429,4899,11758,01.135,551
2023-01-07T07:03:51,42.805,6.029,CST-1368DR,4429,4900,11760,01.134,551
2023-01-07T07:06:53,42.805,6.029,CST-1368DR,4429,4900,11761,01.134,551
2023-01-07T07:09:55,42.805,6.029,CST-1368DR,4429,4900,11759,01.135,551
2023-01-07T07:12:56,42.805,6.029,CST-1368DR,4429,4899,11758,01.135,551
2023-01-07T07:15:58,42.805,6.029,CST-1368DR,4429,4899,11757,01.135,551
2023-01-07T07:18:59,42.805,6.029,CST-1368DR,4429,4899,11757,01.135,551
2023-01-07T07:22:01,42.805,6.029,CST-1368DR,4429,4899,11757,01.135,551
2023-01-07T07:25:03,42.805,6.029,CST-1368DR,4429,4900,11759,01.135,551
2023-01-07T07:28:04,42.805,6.029,CST-1368DR,4429,4900,11759,01.135,551
2023-01-07T07:31:06,42.805,6.029,CST-1368DR,4429,4899,11758,01.135,551
2023-01-07T07:34:07,42.805,6.029,CST-1368DR,4429,4899,11758,01.135,551
2023-01-07T07:37:09,42.805,6.029,CST-1368DR,4429,4900,11761,01.134,551
2023-01-07T07:40:11,42.805,6.029,CST-1368DR,4429,4899,11757,01.135,551
2023-01-07T07:43:12,42.805,6.029,CST-1368DR,4429,4899,11758,01.135,551
2023-01-07T07:46:14,42.805,6.029,CST-1368DR,4429,4899,11758,01.135,551
2023-01-07T07:49:15,42.805,6.029,CST-1368DR,4429,4899,11758,01.135,551
2023-01-07T07:52:17,42.805,6.029,CST-1368DR,4429,4899,11758,01.135,551
2023-01-07T07:55:18,42.805,6.029,CST-1368DR,4429,4899,11758,01.135,551
2023-01-07T07:58:20,42.805,6.029,CST-1368DR,4429,4898,11755,01.136,551
2023-01-07T08:01:22,42.805,6.029,CST-1368DR,4429,4890,11736,01.143,551
2023-01-07T08:04:23,42.805,6.029,CST-1368DR,4429,4898,11755,01.136,551
2023-01-07T08:07:25,42.805,6.029,CST-1368DR,4429,4900,11761,01.134,551
2023-01-07T08:10:26,42.805,6.029,CST-1368DR,4429,4899,11757,01.135,551
2023-01-07T08:13:28,42.805,6.029,CST-1368DR,4429,4899,11757,01.135,551
2023-01-07T08:16:30,42.805,6.029,CST-1368DR,4429,4894,11746,01.139,551
2023-01-07T08:19:31,42.805,6.029,CST-1368DR,4428,4893,11745,01.139,551
2023-01-07T08:22:33,42.805,6.029,CST-1368DR,4428,4892,11743,01.140,551
2023-01-07T08:25:34,42.805,6.029,CST-1368DR,4428,4890,11738,01.142,551
2023-01-07T08:28:36,42.805,6.029,CST-1368DR,4428,4896,11754,01.136,551
2023-01-07T08:31:37,42.805,6.029,CST-1368DR,4428,4893,11745,01.139,551
2023-01-07T08:34:39,42.805,6.029,CST-1368DR,4428,4885,11726,01.146,551
2023-01-07T08:37:41,42.805,6.029,CST-1368DR,4428,4897,11756,01.136,551
2023-01-07T08:40:42,42.805,6.029,CST-1368DR,4428,4897,11756,01.136,551
2023-01-07T08:43:44,42.805,6.029,CST-1368DR,4428,4898,11757,01.135,551
2023-01-07T08:46:45,42.805,6.029,CST-1368DR,4428,4897,11756,01.136,551
2023-01-07T08:49:47,42.805,6.029,CST-1368DR,4428,4897,11755,01.136,551
2023-01-07T08:52:49,42.805,6.029,CST-1368DR,4428,4898,11758,01.135,551
2023-01-07T08:55:50,42.805,6.029,CST-1368DR,4428,4898,11758,01.135,551
2023-01-07T08:58:52,42.805,6.029,CST-1368DR,4428,4898,11758,01.135,551
2023-01-07T09:01:53,42.805,6.029,CST-1368DR,4428,4898,11759,01.135,551
2023-01-07T09:04:55,42.805,6.029,CST-1368DR,4428,4899,11760,01.134,551
2023-01-07T09:07:57,42.805,6.029,CST-1368DR,4428,4899,11759,01.135,551
2023-01-07T09:10:58,42.805,6.029,CST-1368DR,4428,4898,11758,01.135,551
2023-01-07T09:14:00,42.805,6.029,CST-1368DR,4428,4898,11758,01.135,551
2023-01-07T09:17:01,42.805,6.029,CST-1368DR,4428,4899,11759,01.135,551
2023-01-07T09:20:03,42.805,6.029,CST-1368DR,4428,4898,11757,01.135,551
2023-01-07T09:23:04,42.805,6.029,CST-1368DR,4428,4898,11757,01.135,551
2023-01-07T09:26:06,42.805,6.029,CST-1368DR,4428,4897,11755,01.136,551
2023-01-07T09:29:08,42.805,6.029,CST-1368DR,4428,4897,11756,01.136,551
2023-01-07T09:32:09,42.805,6.029,CST-1368DR,4428,4898,11759,01.135,551
2023-01-07T09:35:11,42.805,6.029,CST-1368DR,4428,4899,11761,01.134,551
2023-01-07T09:38:12,42.805,6.029,CST-1368DR,4428,4899,11760,01.134,551
2023-01-07T09:41:14,42.805,6.029,CST-1368DR,4428,4897,11756,01.136,551
2023-01-07T09:44:16,42.805,6.029,CST-1368DR,4428,4896,11754,01.136,551
2023-01-07T09:47:17,42.805,6.029,CST-1368DR,4428,4898,11758,01.135,551
2023-01-07T09:50:19,42.805,6.029,CST-1368DR,4428,4898,11757,01.135,551
2023-01-07T09:53:20,42.805,6.029,CST-1368DR,4428,4898,11758,01.135,551
2023-01-07T09:56:22,42.805,6.029,CST-1368DR,4428,4898,11758,01.135,551
2023-01-07T09:59:23,42.805,6.029,CST-1368DR,4427,4896,11756,01.136,551
2023-01-07T10:02:25,42.805,6.029,CST-1368DR,4428,4898,11759,01.135,551
2023-01-07T10:05:27,42.805,6.029,CST-1368DR,4428,4898,11758,01.135,551
2023-01-07T10:08:28,42.805,6.029,CST-1368DR,4427,4898,11761,01.134,551
2023-01-07T10:11:30,42.805,6.029,CST-1368DR,4427,4897,11758,01.135,551
2023-01-07T10:14:31,42.805,6.029,CST-1368DR,4427,4897,11759,01.135,551
2023-01-07T10:17:33,42.805,6.029,CST-1368DR,4427,4898,11759,01.135,551
2023-01-07T10:20:35,42.805,6.029,CST-1368DR,4427,4899,11763,01.133,551
2023-01-07T10:23:36,42.805,6.029,CST-1368DR,4427,4899,11762,01.134,551
2023-01-07T10:26:38,42.805,6.029,CST-1368DR,4427,4898,11760,01.134,551
2023-01-07T10:29:39,42.805,6.029,CST-1368DR,4428,4896,11753,01.137,551
2023-01-07T10:32:41,42.805,6.029,CST-1368DR,4428,4898,11759,01.135,551
2023-01-07T10:35:43,42.805,6.029,CST-1368DR,4428,4899,11760,01.134,551
2023-01-07T10:38:44,42.805,6.029,CST-1368DR,4428,4899,11761,01.134,551
2023-01-07T10:41:46,42.805,6.029,CST-1368DR,4428,4899,11759,01.135,551
2023-01-07T10:44:47,42.805,6.029,CST-1368DR,4428,4899,11759,01.135,551
2023-01-07T10:47:49,42.805,6.029,CST-1368DR,4428,4896,11753,01.137,551
2023-01-07T10:50:50,42.805,6.029,CST-1368DR,4428,4896,11752,01.137,551
2023-01-07T10:53:52,42.805,6.029,CST-1368DR,4428,4899,11759,01.135,551
2023-01-07T10:56:54,42.805,6.029,CST-1368DR,4428,4898,11759,01.135,551
2023-01-07T10:59:55,42.805,6.029,CST-1368DR,4428,4898,11757,01.135,551
2023-01-07T11:02:57,42.805,6.029,CST-1368DR,4428,4899,11759,01.135,551
2023-01-07T11:05:58,42.805,6.029,CST-1368DR,4428,4899,11759,01.135,551
2023-01-07T11:09:00,42.805,6.029,CST-1368DR,4428,4898,11757,01.135,551
2023-01-07T11:12:02,42.805,6.029,CST-1368DR,4428,4895,11751,01.137,551
2023-01-07T11:15:03,42.805,6.029,CST-1368DR,4428,4897,11756,01.136,551
2023-01-07T11:18:05,42.805,6.029,CST-1368DR,4428,4896,11753,01.137,551
2023-01-07T11:21:06,42.805,6.029,CST-1368DR,4428,4898,11758,01.135,551
2023-01-07T11:24:08,42.805,6.029,CST-1368DR,4428,4898,11758,01.135,551
2023-01-07T11:27:09,42.805,6.029,CST-1368DR,4428,4897,11756,01.136,551
2023-01-07T11:30:11,42.805,6.029,CST-1368DR,4428,4898,11757,01.135,551
2023-01-07T11:33:13,42.805,6.029,CST-1368DR,4428,4892,11744,01.140,551
2023-01-07T11:36:14,42.805,6.029,CST-1368DR,4428,4899,11760,01.134,551
2023-01-07T11:39:16,42.805,6.029,CST-1368DR,4428,4897,11756,01.136,551
2023-01-07T11:42:17,42.805,6.029,CST-1368DR,4428,4898,11758,01.135,550
2023-01-07T11:45:19,42.805,6.029,CST-1368DR,4428,4898,11757,01.135,551
2023-01-07T11:48:21,42.805,6.029,CST-1368DR,4428,4897,11756,01.136,551
2023-01-07T11:51:22,42.805,6.029,CST-1368DR,4428,4898,11759,01.135,551
2023-01-07T11:54:24,42.805,6.029,CST-1368DR,4428,4899,11760,01.134,551
2023-01-07T11:57:25,42.805,6.029,CST-1368DR,4428,4899,11760,01.134,551
2023-01-07T12:00:27,42.805,6.029,CST-1368DR,4428,4895,11751,01.137,551
2023-01-07T12:03:28,42.805,6.029,CST-1368DR,4428,4899,11759,01.135,551
2023-01-07T12:06:30,42.805,6.029,CST-1368DR,4428,4895,11751,01.137,551
2023-01-07T12:09:32,42.805,6.029,CST-1368DR,4428,4896,11754,01.136,551
2023-01-07T12:12:33,42.805,6.029,CST-1368DR,4428,4895,11750,01.138,551
2023-01-07T12:15:35,42.805,6.029,CST-1368DR,4428,4897,11755,01.136,551
2023-01-07T12:18:36,42.805,6.029,CST-1368DR,4428,4897,11755,01.136,551
2023-01-07T12:21:38,42.805,6.029,CST-1368DR,4428,4894,11748,01.138,551
2023-01-07T12:24:40,42.805,6.029,CST-1368DR,4428,4898,11758,01.135,551
2023-01-07T12:27:41,42.805,6.029,CST-1368DR,4428,4898,11758,01.135,551
2023-01-07T12:30:43,42.805,6.029,CST-1368DR,4428,4896,11754,01.136,551
2023-01-07T12:33:44,42.805,6.029,CST-1368DR,4428,4897,11756,01.136,551
2023-01-07T12:36:46,42.805,6.029,CST-1368DR,4428,4897,11756,01.136,551
2023-01-07T12:39:48,42.805,6.029,CST-1368DR,4428,4897,11756,01.136,551
2023-01-07T12:42:49,42.805,6.029,CST-1368DR,4428,4891,11741,01.141,551
2023-01-07T12:45:51,42.805,6.029,CST-1368DR,4428,4895,11751,01.137,551
2023-01-07T12:48:52,42.805,6.029,CST-1368DR,4428,4896,11752,01.137,551
2023-01-07T12:51:54,42.805,6.029,CST-1368DR,4428,4895,11751,01.137,551
2023-01-07T12:54:55,42.805,6.029,CST-1368DR,4428,4897,11755,01.136,551
2023-01-07T12:57:57,42.805,6.029,CST-1368DR,4428,4896,11753,01.137,551
2023-01-07T13:00:59,42.805,6.029,CST-1368DR,4428,4897,11756,01.136,551
2023-01-07T13:04:00,42.805,6.029,CST-1368DR,4428,4902,11768,01.132,551
2023-01-07T13:07:02,42.805,6.029,CST-1368DR,4428,4898,11759,01.135,551
2023-01-07T13:10:03,42.805,6.029,CST-1368DR,4428,4899,11759,01.135,551
2023-01-07T13:13:05,42.805,6.029,CST-1368DR,4428,4896,11752,01.137,551
2023-01-07T13:16:07,42.805,6.029,CST-1368DR,4428,4896,11753,01.137,551
2023-01-07T13:19:08,42.805,6.029,CST-1368DR,4428,4898,11759,01.135,551
2023-01-07T13:22:10,42.805,6.029,CST-1368DR,4428,4899,11760,01.134,551
2023-01-07T13:25:11,42.805,6.029,CST-1368DR,4428,4899,11760,01.134,551
2023-01-07T13:28:13,42.805,6.029,CST-1368DR,4428,4898,11759,01.135,551
2023-01-07T13:31:14,42.805,6.029,CST-1368DR,4428,4899,11760,01.134,551
2023-01-07T13:34:16,42.805,6.029,CST-1368DR,4428,4899,11760,01.134,551
2023-01-07T13:37:18,42.805,6.029,CST-1368DR,4428,4899,11761,01.134,551
2023-01-07T13:40:19,42.805,6.029,CST-1368DR,4428,4899,11760,01.134,551
2023-01-07T13:43:21,42.805,6.029,CST-1368DR,4428,4901,11766,01.132,551
2023-01-07T13:46:22,42.805,6.029,CST-1368DR,4428,4898,11759,01.135,551
2023-01-07T13:49:24,42.805,6.029,CST-1368DR,4428,4901,11765,01.133,551
2023-01-07T13:52:26,42.805,6.029,CST-1368DR,4428,4899,11760,01.134,551
2023-01-07T13:55:27,42.805,6.029,CST-1368DR,4428,4898,11759,01.135,551
2023-01-07T13:58:29,42.805,6.029,CST-1368DR,4428,4899,11760,01.134,551
2023-01-07T14:01:30,42.805,6.029,CST-1368DR,4428,4898,11757,01.135,551
2023-01-07T14:04:32,42.805,6.029,CST-1368DR,4428,4906,11777,01.129,551
2023-01-07T14:07:33,42.805,6.029,CST-1368DR,4428,4897,11756,01.136,551
2023-01-07T14:10:35,42.805,6.029,CST-1368DR,4428,4900,11763,01.133,551
2023-01-07T14:13:37,42.805,6.029,CST-1368DR,4428,4902,11768,01.132,551
2023-01-07T14:16:38,42.805,6.029,CST-1368DR,4428,4901,11764,01.133,551
2023-01-07T14:19:40,42.805,6.029,CST-1368DR,4428,4899,11761,01.134,551
2023-01-07T14:22:41,42.805,6.029,CST-1368DR,4428,4900,11762,01.134,551
2023-01-07T14:25:43,42.805,6.029,CST-1368DR,4428,4900,11762,01.134,551
2023-01-07T14:28:45,42.805,6.029,CST-1368DR,4428,4900,11763,01.133,551
2023-01-07T14:31:46,42.805,6.029,CST-1368DR,4428,4901,11766,01.132,551
2023-01-07T14:34:48,42.805,6.029,CST-1368DR,4428,4901,11766,01.132,551
2023-01-07T14:37:49,42.805,6.029,CST-1368DR,4428,4902,11767,01.132,551
2023-01-07T14:40:51,42.805,6.029,CST-1368DR,4428,4899,11760,01.134,551
2023-01-07T14:43:52,42.805,6.029,CST-1368DR,4428,4900,11762,01.134,551
2023-01-07T14:46:54,42.805,6.029,CST-1368DR,4428,4901,11765,01.133,551
2023-01-07T14:49:56,42.805,6.029,CST-1368DR,4428,4900,11763,01.133,551
2023-01-07T14:52:57,42.805,6.029,CST-1368DR,4428,4900,11763,01.133,551
2023-01-07T14:55:59,42.805,6.029,CST-1368DR,4428,4900,11763,01.133,551
2023-01-07T14:59:00,42.805,6.029,CST-1368DR,4428,4900,11763,01.133,551
2023-01-07T15:02:02,42.805,6.029,CST-1368DR,4428,4901,11765,01.133,551
2023-01-07T15:05:04,42.805,6.029,CST-1368DR,4428,4901,11765,01.133,551
2023-01-07T15:08:05,42.805,6.029,CST-1368DR,4428,4901,11766,01.132,551
2023-01-07T15:11:07,42.805,6.029,CST-1368DR,4428,4900,11763,01.133,551
2023-01-07T15:14:08,42.805,6.029,CST-1368DR,4428,4902,11766,01.132,551
2023-01-07T15:17:10,42.805,6.029,CST-1368DR,4428,4902,11768,01.132,551
2023-01-07T15:20:12,42.805,6.029,CST-1368DR,4428,4899,11761,01.134,551
2023-01-07T15:23:13,42.805,6.029,CST-1368DR,4428,4901,11766,01.132,551
2023-01-07T15:26:15,42.805,6.029,CST-1368DR,4428,4914,11795,01.122,551
2023-01-07T15:29:16,42.805,6.029,CST-1368DR,4428,4901,11764,01.133,551
2023-01-07T15:32:18,42.805,6.029,CST-1368DR,4428,4902,11768,01.132,551
2023-01-07T15:35:19,42.805,6.029,CST-1368DR,4428,4902,11768,01.132,551
2023-01-07T15:38:21,42.805,6.029,CST-1368DR,4428,4902,11767,01.132,551
2023-01-07T15:41:23,42.805,6.029,CST-1368DR,4428,4901,11765,01.133,551
2023-01-07T15:44:24,42.805,6.029,CST-1368DR,4428,4901,11765,01.133,551
2023-01-07T15:47:26,42.805,6.029,CST-1368DR,4428,4903,11769,01.131,551
2023-01-07T15:50:27,42.805,6.029,CST-1368DR,4428,4902,11766,01.132,551
2023-01-07T15:53:29,42.805,6.029,CST-1368DR,4428,4901,11765,01.133,551
2023-01-07T15:56:31,42.805,6.029,CST-1368DR,4428,4900,11763,01.133,551
2023-01-07T15:59:32,42.805,6.029,CST-1368DR,4428,4902,11767,01.132,551
2023-01-07T16:02:34,42.805,6.029,CST-1368DR,4428,4901,11765,01.133,551
2023-01-07T16:05:35,42.805,6.029,CST-1368DR,4428,4899,11761,01.134,551
2023-01-07T16:08:37,42.805,6.029,CST-1368DR,4428,4900,11763,01.133,551
2023-01-07T16:11:38,42.805,6.029,CST-1368DR,4428,4901,11765,01.133,551
2023-01-07T16:14:40,42.805,6.029,CST-1368DR,4428,4900,11763,01.133,551
2023-01-07T16:17:42,42.805,6.029,CST-1368DR,4428,4899,11761,01.134,551
2023-01-07T16:20:43,42.805,6.029,CST-1368DR,4428,4902,11766,01.132,551
2023-01-07T16:23:45,42.805,6.029,CST-1368DR,4428,4901,11764,01.133,551
2023-01-07T16:26:46,42.805,6.029,CST-1368DR,4428,4901,11764,01.133,551
2023-01-07T16:29:48,42.805,6.029,CST-1368DR,4428,4901,11764,01.133,551
2023-01-07T16:32:50,42.805,6.029,CST-1368DR,4428,4900,11763,01.133,551
2023-01-07T16:35:51,42.805,6.029,CST-1368DR,4428,4899,11761,01.134,551